Wind_Speed
33 33 33 33 32 32 34 35 37 35 35 34 35 36 35 34 33 33 33 33 33 34 34 34 34 35 35 35 34 34 34 34 34 35 35 35 35 36 38 39 41 42 44 46
32 31 32 32 31 32 32 33 35 35 34 33 34 35 35 34 32 32 32 33 33 33 34 34 34 34 35 35 35 35 35 34 33 34 35 35 35 36 36 37 39 41 42 44
32 30 31 31 30 30 31 30 31 32 33 33 34 34 34 34 33 32 32 32 33 33 33 33 33 33 33 34 34 34 34 34 33 34 33 33 34 34 35 36 37 38 40 42
33 32 31 30 29 29 29 29 30 30 31 31 32 33 34 35 34 33 33 32 32 32 32 32 32 32 33 34 34 33 33 33 33 32 32 33 33 33 34 35 35 36 38 40
31 30 30 29 29 29 29 28 28 29 31 32 32 32 32 33 33 33 32 32 32 31 31 31 30 30 31 32 33 32 32 32 32 32 31 31 31 32 33 34 35 36 37 39
30 30 29 29 29 29 29 29 29 30 31 32 32 32 31 32 32 32 32 33 33 32 31 31 30 30 30 30 31 31 31 31 32 32 31 31 31 32 32 33 34 35 36 38
30 30 29 30 29 29 29 29 30 31 32 32 32 32 32 32 32 32 32 33 33 33 32 31 31 31 30 30 30 30 31 31 31 31 31 31 32 32 32 33 33 34 35 37
29 29 29 30 30 29 29 30 31 32 33 33 32 32 33 33 33 33 33 32 32 32 32 32 31 31 30 30 30 30 30 29 30 31 31 32 31 31 32 33 33 33 34 36
30 30 30 30 30 30 31 31 32 32 33 33 33 33 33 32 33 34 33 33 32 31 31 31 31 31 30 28 28 27 27 27 28 30 31 32 32 32 32 33 33 33 35 35
30 30 30 31 31 32 32 31 32 32 32 32 32 31 31 31 31 32 32 32 31 30 30 30 29 29 28 27 26 25 26 27 27 28 30 30 31 31 32 32 33 34 35 35
30 30 29 30 30 31 30 30 31 32 32 32 32 31 30 29 29 28 29 29 29 29 28 28 27 27 27 27 26 25 25 25 27 27 28 30 31 32 32 33 33 34 34 35
29 29 29 28 28 29 29 29 30 30 30 31 31 30 30 28 28 27 28 27 27 27 27 27 26 25 25 25 25 25 25 25 26 26 27 28 29 31 32 32 32 33 33 34
28 28 28 28 28 29 29 29 30 30 30 30 30 29 28 28 27 27 27 26 26 26 26 26 26 25 25 25 25 26 25 25 25 25 26 28 29 29 29 30 31 30 30 31
27 27 27 28 28 29 30 30 30 30 30 29 29 28 27 27 26 26 26 26 26 26 26 26 26 26 26 25 25 25 25 25 25 25 26 27 27 27 28 28 29 29 29 29
27 27 27 28 29 30 30 30 30 29 29 28 28 27 26 26 25 25 25 26 25 26 26 26 26 26 25 25 25 25 25 24 25 25 25 25 25 26 26 26 26 27 27 27
27 28 28 29 29 30 29 30 30 29 29 28 27 26 26 26 26 26 26 26 26 26 26 26 26 26 26 26 25 25 25 25 25 25 24 24 24 24 25 25 25 26 26 26
28 28 28 28 29 28 29 29 29 29 28 28 27 26 26 26 26 26 27 27 27 26 26 26 26 26 25 25 26 26 26 25 25 24 24 24 24 24 24 24 25 25 26 26
28 28 28 28 27 27 28 28 28 28 28 27 26 26 26 27 27 27 27 27 26 25 25 25 25 25 24 24 24 24 24 23 24 24 24 23 23 24 24 24 24 24 25 26
27 28 28 28 28 28 28 28 28 27 27 26 26 26 26 26 26 26 26 26 25 25 25 25 25 24 23 23 23 23 23 22 22 22 23 23 23 23 23 24 24 25 25 26
27 27 27 27 28 27 27 27 27 26 26 26 25 25 25 25 25 25 25 25 24 24 24 24 23 23 22 22 22 22 22 22 22 22 22 23 23 23 24 24 25 26 26 27
27 27 27 28 28 27 27 27 26 26 25 25 25 24 24 24 24 24 24 23 23 23 22 21 21 21 21 21 21 21 22 22 22 22 22 23 23 23 24 24 25 26 27 27
27 27 27 27 27 26 26 26 26 25 25 24 23 23 23 23 23 22 22 21 20 20 20 20 21 21 21 21 21 21 22 22 22 22 23 23 23 23 24 24 25 25 26 27
27 27 26 26 26 25 25 25 24 24 23 23 22 22 22 22 21 20 19 19 18 19 20 20 20 20 20 20 20 21 21 21 21 21 22 22 23 23 23 24 24 24 24 25
26 26 25 25 25 24 24 24 23 23 22 22 21 21 20 20 19 19 18 18 18 19 19 20 20 20 20 19 19 20 20 20 21 21 21 22 22 23 23 23 24 24 25 25
25 25 25 25 24 24 24 24 23 22 22 22 21 21 21 20 19 19 19 18 19 19 20 20 20 20 20 20 20 20 20 20 21 21 21 21 22 22 22 23 23 24 25 25
24 24 24 24 24 24 24 23 23 22 22 22 22 21 21 20 20 19 20 20 20 20 21 20 20 20 20 20 20 20 20 20 21 21 21 21 22 22 23 23 24 24 24 25
24 24 24 25 25 25 25 24 23 23 22 22 22 22 22 21 21 21 21 21 21 21 21 21 20 20 20 19 19 20 20 20 21 21 21 22 22 23 23 23 24 24 24 25
Wind_Direction
295 292 289 288 289 288 285 283 283 283 284 284 281 281 281 281 281 281 281 281 282 280 280 280 279 278 276 274 272 269 268 267 264 261 260 259 257 255 253 251 249 248 246 245
296 292 288 288 289 289 289 288 285 282 282 283 282 281 281 280 280 281 282 282 283 283 282 281 279 279 276 274 271 270 267 266 264 262 260 259 256 255 255 253 251 249 247 248
295 293 291 290 291 290 289 288 287 285 283 282 281 282 282 281 281 283 283 284 285 284 282 281 280 280 278 276 272 270 268 265 263 261 260 258 257 255 254 253 252 252 253 252
298 295 293 293 293 291 291 291 287 287 286 285 284 284 284 283 283 284 284 285 285 285 284 283 280 280 279 278 273 269 266 264 262 261 260 259 258 257 255 254 254 255 254 253
301 298 296 294 294 293 292 290 290 288 286 286 286 286 287 286 285 285 285 286 286 285 285 285 283 281 280 278 274 270 266 263 262 262 261 260 258 256 254 254 255 256 255 255
300 299 299 297 294 293 293 291 289 289 288 288 286 285 287 286 286 286 285 286 287 286 286 286 286 284 281 278 275 271 268 266 263 262 261 260 259 257 257 256 256 256 256 256
301 298 297 296 295 293 293 294 292 291 290 290 288 285 285 285 286 286 287 287 288 288 287 286 285 284 281 277 276 273 270 268 264 262 261 261 260 259 258 259 258 257 257 257
302 301 298 296 295 294 293 293 294 293 291 290 290 288 286 284 285 287 287 288 289 289 289 287 285 283 280 277 275 273 271 268 264 262 262 262 262 261 260 260 259 259 259 260
300 300 298 297 296 296 296 295 295 295 294 293 292 290 288 286 286 286 287 288 288 289 289 287 287 285 282 279 275 273 272 269 266 264 263 262 262 262 262 261 260 260 261 261
300 299 298 298 297 297 299 299 298 297 296 296 294 292 290 289 288 288 287 287 288 289 289 287 286 286 283 280 277 274 274 271 268 266 265 264 263 263 263 262 261 260 260 260
299 299 299 299 300 301 300 300 300 299 299 298 296 294 292 291 290 289 288 286 287 288 289 289 287 286 284 281 278 276 276 273 270 268 265 264 264 264 263 262 263 262 260 260
301 299 299 301 301 301 300 299 299 299 299 299 297 294 292 291 291 290 290 289 288 287 289 290 289 287 284 282 279 278 277 275 272 268 265 264 265 265 264 263 263 263 264 263
303 301 299 299 301 302 302 301 302 301 301 301 299 296 293 292 291 290 290 289 289 289 290 290 289 287 286 284 280 278 277 275 275 273 270 268 267 266 264 263 262 262 263 263
305 304 302 301 302 303 303 303 304 304 303 302 301 299 296 294 292 290 289 290 290 289 290 291 289 287 285 283 282 279 277 275 275 276 274 273 271 269 267 267 264 263 263 264
307 307 306 303 303 303 303 303 304 304 303 303 301 299 297 295 294 292 291 292 292 290 290 290 289 287 285 284 281 279 278 277 277 276 276 275 272 269 268 268 267 266 265 265
309 309 308 306 305 305 306 305 304 303 302 302 300 298 297 296 294 293 292 291 291 290 288 288 287 286 284 283 282 280 279 279 278 277 277 275 273 271 269 268 267 265 265 264
311 310 309 309 307 307 308 307 306 304 303 303 300 298 296 295 293 292 291 291 291 289 288 288 287 285 283 282 283 283 281 280 278 277 277 276 274 272 270 269 268 267 265 264
314 313 313 312 309 307 308 309 309 307 305 304 301 299 297 296 295 293 292 291 291 289 289 288 287 286 284 283 284 284 282 281 279 278 277 275 274 271 269 268 269 268 266 266
316 315 314 314 313 311 310 309 310 309 308 305 302 301 300 299 297 296 294 293 292 291 290 290 288 286 284 284 284 284 284 282 281 279 278 277 275 273 270 269 268 268 268 268
319 318 317 316 316 314 313 312 311 310 309 307 306 304 303 302 300 298 296 294 293 293 292 290 288 285 284 284 285 285 284 283 282 281 280 279 277 275 274 273 271 270 270 270
321 320 319 318 317 316 315 315 314 313 312 310 309 307 306 304 303 301 298 296 295 295 294 291 288 286 285 284 283 284 284 283 282 281 280 279 278 277 277 276 276 275 275 274
324 323 322 321 319 319 319 318 317 316 314 313 311 311 309 308 306 304 302 299 297 296 297 295 292 288 286 284 283 283 284 284 284 284 282 281 279 279 279 280 280 279 278 277
327 327 326 325 324 323 323 322 321 320 319 317 316 315 314 313 311 308 306 304 301 300 299 298 295 292 289 287 287 287 287 287 287 286 284 283 282 281 281 282 282 282 282 281
329 329 329 329 329 329 328 327 326 325 324 323 323 322 321 319 317 314 311 310 308 306 303 301 299 297 295 292 290 290 290 290 290 290 288 286 285 284 283 283 283 283 283 283
329 329 330 331 331 331 331 330 329 328 327 327 325 324 323 322 321 318 315 313 311 308 306 303 300 298 296 294 292 291 292 292 292 291 290 289 287 286 285 285 285 285 285 285
328 329 330 331 331 331 332 332 332 330 328 327 326 325 325 324 322 318 316 315 313 311 309 306 304 301 299 296 294 293 293 293 292 292 291 290 290 289 288 288 287 287 287 288
326 327 328 330 330 331 331 332 331 330 329 327 326 325 325 324 322 319 318 317 316 313 311 309 306 304 302 300 298 297 297 296 295 294 292 291 291 291 291 290 289 289 289 289
Height
5556 5553 5550 5548 5547 5545 5543 5541 5539 5539 5537 5536 5533 5530 5528 5526 5525 5524 5522 5519 5517 5515 5513 5511 5508 5506 5504 5502 5500 5499 5499 5498 5498 5498 5498 5499 5500 5502 5504 5506 5509 5512 5516 5520
5549 5546 5542 5540 5539 5537 5535 5532 5530 5528 5528 5526 5523 5521 5519 5517 5516 5515 5512 5510 5508 5506 5504 5501 5499 5497 5495 5494 5492 5491 5490 5490 5490 5490 5490 5490 5491 5492 5494 5496 5499 5502 5506 5509
5540 5538 5534 5533 5532 5529 5526 5524 5522 5519 5519 5516 5514 5512 5510 5508 5507 5505 5503 5501 5499 5496 5494 5492 5489 5488 5486 5485 5483 5482 5482 5481 5481 5481 5481 5481 5482 5483 5485 5487 5490 5493 5496 5499
5531 5530 5527 5528 5524 5521 5518 5516 5514 5511 5509 5507 5505 5504 5501 5499 5497 5496 5494 5492 5489 5487 5485 5482 5480 5478 5476 5475 5474 5473 5473 5473 5473 5473 5473 5473 5474 5475 5477 5479 5481 5484 5486 5489
5523 5520 5519 5518 5516 5513 5510 5509 5506 5503 5501 5499 5497 5495 5494 5490 5488 5486 5484 5482 5480 5478 5476 5473 5471 5469 5467 5466 5465 5464 5464 5464 5464 5465 5465 5465 5466 5467 5469 5471 5473 5474 5476 5479
5516 5513 5511 5511 5508 5504 5503 5501 5498 5495 5492 5490 5488 5487 5486 5482 5480 5478 5475 5473 5471 5469 5467 5465 5462 5460 5459 5457 5456 5455 5455 5455 5455 5456 5457 5458 5458 5459 5461 5462 5464 5465 5467 5469
5510 5506 5504 5502 5499 5497 5496 5493 5490 5486 5484 5482 5479 5478 5476 5473 5471 5469 5467 5465 5462 5460 5458 5456 5453 5451 5450 5449 5448 5447 5446 5446 5446 5447 5448 5449 5450 5451 5452 5453 5455 5456 5457 5459
5502 5499 5499 5494 5491 5490 5487 5484 5481 5478 5476 5473 5471 5468 5466 5464 5462 5460 5458 5456 5453 5451 5449 5446 5444 5443 5441 5440 5439 5438 5438 5437 5438 5439 5439 5440 5441 5442 5443 5444 5445 5446 5448 5449
5496 5494 5490 5486 5483 5481 5479 5476 5473 5470 5468 5465 5462 5460 5457 5455 5452 5450 5448 5446 5444 5442 5440 5438 5435 5433 5432 5431 5430 5430 5430 5429 5429 5430 5430 5431 5432 5433 5433 5434 5435 5437 5438 5439
5489 5486 5483 5480 5476 5474 5471 5468 5465 5462 5459 5456 5453 5451 5448 5445 5443 5441 5439 5437 5435 5433 5431 5429 5427 5425 5424 5423 5422 5422 5421 5421 5421 5421 5422 5422 5423 5423 5424 5425 5426 5427 5428 5429
5482 5479 5477 5473 5470 5467 5464 5461 5458 5454 5451 5447 5445 5442 5439 5437 5434 5432 5430 5428 5426 5425 5423 5421 5419 5417 5416 5415 5414 5414 5413 5413 5413 5413 5413 5413 5414 5414 5415 5415 5416 5417 5418 5419
5475 5472 5469 5466 5463 5460 5457 5454 5450 5447 5443 5440 5436 5433 5431 5428 5426 5424 5422 5420 5418 5416 5415 5413 5411 5410 5408 5407 5406 5406 5405 5405 5404 5404 5404 5404 5405 5406 5405 5406 5406 5407 5407 5409
5467 5464 5461 5459 5456 5452 5449 5446 5443 5439 5435 5432 5429 5425 5423 5420 5418 5416 5414 5412 5411 5409 5407 5405 5404 5402 5401 5399 5398 5398 5397 5397 5397 5396 5395 5395 5396 5396 5397 5397 5396 5397 5397 5398
5460 5457 5455 5452 5449 5445 5442 5439 5435 5431 5428 5424 5421 5418 5415 5413 5411 5409 5407 5405 5403 5401 5400 5398 5396 5395 5393 5392 5391 5390 5390 5389 5389 5388 5387 5387 5387 5387 5387 5387 5388 5388 5388 5388
5454 5451 5448 5445 5442 5438 5435 5431 5428 5424 5421 5417 5414 5411 5409 5406 5404 5402 5400 5398 5396 5394 5392 5390 5389 5387 5385 5384 5383 5383 5382 5381 5380 5380 5379 5379 5378 5378 5378 5378 5378 5379 5379 5379
5448 5445 5441 5438 5434 5431 5427 5424 5421 5417 5414 5411 5407 5405 5402 5399 5397 5395 5393 5391 5389 5387 5385 5383 5381 5380 5378 5377 5376 5375 5374 5373 5372 5371 5371 5370 5370 5370 5370 5370 5370 5370 5370 5371
5442 5439 5435 5431 5427 5424 5420 5417 5413 5410 5407 5403 5400 5397 5394 5392 5390 5388 5385 5383 5381 5379 5377 5376 5374 5372 5370 5369 5368 5367 5366 5365 5364 5363 5363 5362 5362 5362 5362 5362 5362 5362 5362 5362
5435 5431 5427 5424 5420 5417 5413 5410 5406 5403 5399 5396 5393 5390 5387 5384 5382 5380 5377 5375 5373 5372 5370 5368 5366 5364 5363 5362 5361 5359 5358 5357 5356 5356 5355 5355 5354 5354 5354 5354 5354 5354 5354 5354
5429 5425 5421 5417 5413 5410 5406 5403 5399 5396 5392 5389 5385 5382 5379 5377 5374 5372 5370 5368 5366 5364 5362 5360 5358 5357 5356 5355 5354 5352 5351 5350 5349 5348 5348 5347 5347 5346 5346 5346 5346 5346 5345 5345
5423 5419 5415 5411 5407 5404 5400 5396 5393 5389 5385 5382 5379 5375 5373 5370 5367 5365 5363 5360 5359 5357 5355 5353 5351 5350 5349 5348 5346 5345 5344 5343 5342 5341 5340 5340 5339 5338 5338 5337 5337 5337 5337 5337
5418 5414 5410 5406 5402 5398 5394 5390 5386 5383 5379 5376 5372 5369 5366 5363 5360 5358 5356 5354 5352 5350 5348 5346 5344 5343 5342 5341 5339 5338 5337 5336 5335 5334 5333 5332 5332 5331 5330 5329 5329 5328 5328 5327
5413 5408 5404 5400 5396 5392 5388 5384 5380 5377 5373 5370 5366 5363 5360 5357 5354 5352 5349 5347 5345 5343 5341 5339 5338 5336 5335 5334 5333 5331 5330 5329 5328 5326 5325 5325 5324 5323 5322 5321 5320 5319 5319 5318
5408 5404 5399 5395 5391 5387 5383 5379 5375 5371 5368 5364 5361 5358 5355 5351 5349 5346 5344 5341 5339 5337 5335 5333 5331 5330 5328 5327 5325 5324 5323 5322 5320 5319 5318 5317 5316 5315 5314 5313 5312 5311 5310 5309
5404 5399 5395 5391 5387 5383 5379 5375 5371 5367 5363 5360 5356 5353 5350 5347 5344 5341 5339 5336 5334 5332 5330 5327 5325 5323 5322 5320 5319 5317 5316 5314 5313 5312 5310 5309 5308 5307 5305 5304 5303 5302 5301 5300
5400 5395 5391 5387 5383 5379 5375 5371 5367 5363 5360 5356 5353 5349 5346 5343 5340 5337 5334 5331 5329 5326 5324 5321 5319 5317 5315 5313 5312 5310 5309 5307 5306 5304 5303 5301 5300 5299 5297 5296 5295 5294 5292 5291
5396 5392 5388 5384 5380 5375 5371 5367 5363 5360 5356 5353 5349 5346 5342 5339 5336 5332 5329 5326 5323 5320 5318 5315 5313 5310 5308 5306 5305 5303 5301 5300 5298 5296 5295 5293 5292 5291 5289 5288 5286 5285 5283 5282
5392 5388 5384 5380 5376 5372 5368 5364 5360 5356 5352 5349 5345 5342 5338 5335 5331 5328 5324 5321 5318 5314 5311 5308 5306 5303 5301 5299 5297 5296 5294 5292 5291 5289 5287 5285 5284 5282 5281 5279 5278 5276 5274 5273